Find Starlink 30800

NORAD ID: 58206 Int'l Des: 2023-170 Owner: SPXS Country: US Constellation: starlink operational
LEOCIRCULAR

リアルタイム位置

3D地球を読み込み中...

Starlink 30800について

説明を読み込み中...

次回通過

Passes for default location (London). Set your location on the main map for personalized predictions.

高度履歴

Loading altitude history...

軌道要素

1 58206U 23170A 26124.58570319 .00000174 00000-0 15857-4 0 9999
2 58206 43.0011 238.9244 0001587 272.1519 87.9151 15.27562525138847
Epoch: May 4, 2026 • Age: 19 hours

現在のステータス

高度 485.3 km
速度 7.63 km/s
衛星直下点 34.62°N, 78.41°W
打ち上げ日 Nov 4, 2023
運用期間 2.4 years
タイプ internet

技術仕様

分類 Payload
質量 730.00 kg
乾燥質量 700.00 kg
総質量 730.00 kg
長さ 0.30 m
直径 4.10 m
スパン 29.00 m
形状 Box + pan
製造者 SPXS
バスタイプ Starlink V2M
フェーズステータス In Orbit
所有者/国 SPXS/US

Most Searched